This is the latest recevied weather packets stored in our database for station/object DK6MAX-13. If no packets are shown the sender has not sent any weather packets the latest 10 day(s).
| Time | Temp. | Humidity | Pressure | Rain* | Wind** | Luminosity | Snow |
|---|---|---|---|---|---|---|---|
| 1777182948 | 7.22° C | 69% | 1024.9 hPa | - | - | - | - |
| 1777182947 | 7.22° C | 76% | 1024.9 hPa | - | - | - | - |
| 1777182888 | 7.78° C | 76% | 1024.9 hPa | - | - | - | - |
| 1777182887 | 7.78° C | 71% | 1024.9 hPa | - | - | - | - |
| 1777182828 | 7.22° C | 71% | 1024.9 hPa | - | - | - | - |
| 1777182827 | 7.22° C | 74% | 1024.9 hPa | - | - | - | - |
| 1777182768 | 7.22° C | 74% | 1024.9 hPa | - | - | - | - |
| 1777182768 | 7.22° C | 73% | 1024.9 hPa | - | - | - | - |
| 1777182708 | 7.22° C | 72% | 1024.9 hPa | - | - | - | - |
| 1777182708 | 7.22° C | 73% | 1024.9 hPa | - | - | - | - |
| 1777182648 | 6.67° C | 72% | 1025 hPa | - | - | - | - |
| 1777182648 | 6.67° C | 72% | 1024.9 hPa | - | - | - | - |
| 1777182647 | 6.67° C | 78% | 1025 hPa | - | - | - | - |
| 1777182588 | 6.67° C | 78% | 1024.9 hPa | - | - | - | - |
| 1777182588 | 6.67° C | 78% | 1025 hPa | - | - | - | - |
| 1777182587 | 6.67° C | 79% | 1024.9 hPa | - | - | - | - |
| 1777182528 | 5.56° C | 79% | 1024.9 hPa | - | - | - | - |
| 1777182527 | 5.56° C | 73% | 1024.9 hPa | - | - | - | - |
| 1777182468 | 6.67° C | 70% | 1024.8 hPa | - | - | - | - |
| 1777182468 | 6.67° C | 73% | 1024.8 hPa | - | - | - | - |
| 1777182468 | 6.67° C | 73% | 1024.9 hPa | - | - | - | - |
| 1777182408 | 7.22° C | 70% | 1024.8 hPa | - | - | - | - |
| 1777182407 | 7.22° C | 73% | 1024.8 hPa | - | - | - | - |
| 1777182347 | 6.67° C | 73% | 1024.8 hPa | - | - | - | - |
| 1777182288 | 6.11° C | 73% | 1024.9 hPa | - | - | - | - |
* Rain since midnight (hover to see other rain measurements)
** Current wind speed in m/s (hover to see current wind gust speed)